| time (UTC) | temp F | wind direction | speed MPH | gust MPH | rain 1hr in | rain 24hr in | rain mn in | humidity % | barometer mb |
| 20260504081023 | 68 | 164 | 1.0 | 2.0 | 0.00 | 0.00 | 0.00 | 38 | 1021.2 |
| 20260504050018 | 58 | 252 | 1.0 | 2.0 | 0.00 | 0.00 | 0.00 | 48 | 1019.6 |
| 20260504044021 | 58 | 192 | 0.0 | 2.0 | 0.00 | 0.00 | 0.00 | 50 | 1019.4 |
| 20260504043041 | 57 | 258 | 1.0 | 2.0 | 0.00 | 0.00 | 0.00 | 51 | 1019.3 |
| 20260504042042 | 57 | 248 | 1.0 | 2.0 | 0.00 | 0.00 | 0.00 | 52 | 1019.3 |
| 20260504041042 | 57 | 245 | 1.0 | 2.0 | 0.00 | 0.00 | 0.00 | 53 | 1019.6 |
| 20260504040023 | 57 | 220 | 1.0 | 1.0 | 0.00 | 0.00 | 0.00 | 53 | 1019.6 |
| 20260504035104 | 57 | 216 | 2.0 | 2.0 | 0.00 | 0.00 | 0.00 | 54 | 1019.7 |
| 20260504034023 | 57 | 221 | 2.0 | 3.0 | 0.00 | 0.00 | 0.00 | 55 | 1019.7 |
| 20260504033023 | 58 | 218 | 2.0 | 3.0 | 0.00 | 0.00 | 0.00 | 55 | 1020.5 |
| 20260504032024 | 58 | 221 | 1.0 | 2.0 | 0.00 | 0.00 | 0.00 | 56 | 1020.5 |
| 20260504031024 | 58 | 229 | 1.0 | 2.0 | 0.00 | 0.00 | 0.00 | 55 | 1020.8 |
| 20260504030025 | 58 | 220 | 2.0 | 2.0 | 0.00 | 0.00 | 0.00 | 56 | 1020.8 |
| 20260504025025 | 58 | 214 | 0.0 | 2.0 | 0.00 | 0.00 | 0.00 | 53 | 1020.6 |
| 20260504024015 | 59 | 0.0 | 0.0 | 0.00 | 0.00 | 0.00 | 52 | 1020.7 | |
| 20260504023016 | 59 | 0.0 | 0.0 | 0.00 | 0.00 | 0.00 | 51 | 1020.9 | |
| 20260504022015 | 59 | 158 | 1.0 | 1.0 | 0.00 | 0.00 | 0.00 | 52 | 1020.8 |
| 20260504021016 | 59 | 169 | 1.0 | 2.0 | 0.00 | 0.00 | 0.00 | 52 | 1020.6 |
| 20260504020017 | 59 | 359 | 1.0 | 2.0 | 0.00 | 0.00 | 0.00 | 50 | 1020.6 |
| 20260504015018 | 60 | 82 | 0.0 | 3.0 | 0.00 | 0.00 | 0.00 | 49 | 1020.4 |
| 20260504014018 | 60 | 248 | 0.0 | 0.0 | 0.00 | 0.00 | 0.00 | 46 | 1020.4 |
| 20260504013019 | 61 | 240 | 0.0 | 2.0 | 0.00 | 0.00 | 0.00 | 45 | 1020.8 |
| 20260504012019 | 61 | 224 | 2.0 | 3.0 | 0.00 | 0.00 | 0.00 | 42 | 1020.8 |
| 20260504011019 | 62 | 257 | 3.0 | 4.0 | 0.00 | 0.00 | 0.00 | 41 | 1020.8 |
| 20260504010020 | 62 | 294 | 3.0 | 5.0 | 0.00 | 0.00 | 0.00 | 37 | 1020.8 |
| 20260504005020 | 62 | 270 | 3.0 | 4.0 | 0.00 | 0.00 | 0.00 | 37 | 1020.4 |
| 20260504004019 | 63 | 297 | 4.0 | 5.0 | 0.00 | 0.00 | 0.00 | 37 | 1020.4 |
| 20260504003021 | 63 | 278 | 4.0 | 6.0 | 0.00 | 0.00 | 0.00 | 36 | 1020.4 |
| 20260504002021 | 64 | 273 | 4.0 | 6.0 | 0.00 | 0.00 | 0.00 | 34 | 1020.3 |
| 20260504001022 | 64 | 240 | 3.0 | 6.0 | 0.00 | 0.00 | 0.00 | 34 | 1020.1 |
| 20260504000022 | 64 | 270 | 3.0 | 5.0 | 0.00 | 0.00 | 0.00 | 35 | 1020.1 |
| 20260503235103 | 64 | 284 | 3.0 | 7.0 | 0.00 | 0.00 | 0.00 | 35 | 1019.8 |
| 20260503234023 | 64 | 262 | 4.0 | 5.0 | 0.00 | 0.00 | 0.00 | 35 | 1019.8 |
| 20260503233023 | 65 | 279 | 3.0 | 4.0 | 0.00 | 0.00 | 0.00 | 36 | 1019.7 |
| 20260503232023 | 65 | 270 | 3.0 | 7.0 | 0.00 | 0.00 | 0.00 | 37 | 1019.6 |
| 20260503231144 | 65 | 293 | 3.0 | 6.0 | 0.00 | 0.00 | 0.00 | 38 | 1019.8 |
| 20260503230024 | 65 | 282 | 4.0 | 6.0 | 0.00 | 0.00 | 0.00 | 39 | 1019.8 |
| 20260503225024 | 65 | 252 | 4.0 | 8.0 | 0.00 | 0.00 | 0.00 | 39 | 1019.5 |
| 20260503224024 | 66 | 230 | 4.0 | 8.0 | 0.00 | 0.00 | 0.00 | 39 | 1019.6 |
| 20260503223023 | 66 | 261 | 3.0 | 5.0 | 0.00 | 0.00 | 0.00 | 38 | 1019.3 |
| 20260503222025 | 67 | 263 | 2.0 | 6.0 | 0.00 | 0.00 | 0.00 | 38 | 1019.2 |
| 20260503221024 | 67 | 248 | 2.0 | 4.0 | 0.00 | 0.00 | 0.00 | 37 | 1018.9 |
| 20260503220024 | 67 | 262 | 1.0 | 5.0 | 0.00 | 0.00 | 0.00 | 37 | 1018.9 |
| 20260503215024 | 68 | 331 | 1.0 | 1.0 | 0.00 | 0.00 | 0.00 | 37 | 1018.7 |
| 20260503214023 | 68 | 293 | 1.0 | 6.0 | 0.00 | 0.00 | 0.00 | 37 | 1018.7 |
| 20260503213023 | 68 | 344 | 1.0 | 3.0 | 0.00 | 0.00 | 0.00 | 37 | 1018.7 |
| 20260503212044 | 68 | 342 | 1.0 | 2.0 | 0.00 | 0.00 | 0.00 | 37 | 1018.6 |
| 20260503211023 | 68 | 283 | 1.0 | 3.0 | 0.00 | 0.00 | 0.00 | 36 | 1018.2 |
| 20260503210025 | 68 | 291 | 1.0 | 2.0 | 0.00 | 0.00 | 0.00 | 36 | 1018.2 |
| 20260503205025 | 68 | 298 | 1.0 | 2.0 | 0.00 | 0.00 | 0.00 | 36 | 1018.2 |
| 20260503204025 | 69 | 207 | 2.0 | 3.0 | 0.00 | 0.00 | 0.00 | 36 | 1018.3 |
| 20260503203025 | 69 | 255 | 1.0 | 4.0 | 0.00 | 0.00 | 0.00 | 35 | 1017.8 |
| 20260503202045 | 69 | 94 | 0.0 | 1.0 | 0.00 | 0.00 | 0.00 | 35 | 1017.8 |
| 20260503201023 | 69 | 301 | 1.0 | 2.0 | 0.00 | 0.00 | 0.00 | 35 | 1017.0 |
| 20260503200023 | 69 | 346 | 4.0 | 4.0 | 0.00 | 0.00 | 0.00 | 35 | 1017.0 |
| 20260503195024 | 69 | 270 | 4.0 | 8.0 | 0.00 | 0.00 | 0.00 | 34 | 1016.6 |
| 20260503194024 | 69 | 284 | 2.0 | 5.0 | 0.00 | 0.00 | 0.00 | 34 | 1016.6 |
| 20260503193024 | 70 | 357 | 1.0 | 2.0 | 0.00 | 0.00 | 0.00 | 34 | 1016.5 |
| 20260503192025 | 70 | 295 | 2.0 | 9.0 | 0.00 | 0.00 | 0.00 | 34 | 1016.4 |
| 20260503191024 | 70 | 289 | 1.0 | 3.0 | 0.00 | 0.00 | 0.00 | 33 | 1016.6 |
| 20260503190024 | 71 | 324 | 1.0 | 3.0 | 0.00 | 0.00 | 0.00 | 32 | 1016.6 |
| 20260503185024 | 71 | 273 | 2.0 | 4.0 | 0.00 | 0.00 | 0.00 | 31 | 1016.3 |
| 20260503184024 | 72 | 51 | 1.0 | 2.0 | 0.00 | 0.00 | 0.00 | 30 | 1016.4 |
| 20260503183024 | 72 | 264 | 2.0 | 2.0 | 0.00 | 0.00 | 0.00 | 30 | 1016.2 |
| 20260503182045 | 73 | 279 | 3.0 | 5.0 | 0.00 | 0.00 | 0.00 | 29 | 1016.2 |
| 20260503181025 | 74 | 293 | 4.0 | 4.0 | 0.00 | 0.00 | 0.00 | 28 | 1016.2 |
| 20260503180025 | 74 | 261 | 3.0 | 6.0 | 0.00 | 0.00 | 0.00 | 27 | 1016.2 |
| 20260503175024 | 75 | 315 | 3.0 | 5.0 | 0.00 | 0.00 | 0.00 | 27 | 1016.1 |
| 20260503174025 | 76 | 259 | 2.0 | 6.0 | 0.00 | 0.00 | 0.00 | 27 | 1016.2 |
| 20260503173015 | 76 | 302 | 3.0 | 5.0 | 0.00 | 0.03 | 0.00 | 27 | 1016.3 |
| 20260503172045 | 77 | 298 | 3.0 | 5.0 | 0.00 | 0.06 | 0.00 | 28 | 1016.0 |
| 20260503171025 | 78 | 304 | 4.0 | 5.0 | 0.00 | 0.08 | 0.00 | 28 | 1016.0 |
| 20260503131015 | 79 | 40 | 3.0 | 3.0 | 0.00 | 0.08 | 0.00 | 25 | 1018.7 |